Dewpoint
43 44 46 49 51 54 56 58 60 58 58 58 57 56 55 54 54 54 55 53 53 51 43 44 45 49 38 30 16 17 22 18 14 15 15 12 14 18 18 18 18 17 18 18 18 18 19
43 43 45 47 50 52 54 56 58 59 58 58 57 56 55 54 53 55 55 53 52 50 43 44 44 45 37 25 17 16 16 15 14 14 14 15 13 17 19 19 18 18 17 17 18 19 18
41 42 45 47 49 51 52 54 55 59 58 58 57 56 55 54 54 54 55 53 51 49 41 42 46 39 28 19 17 16 14 15 14 14 14 14 17 18 19 17 18 17 15 16 17 16 18
41 41 42 46 48 50 51 52 54 57 59 58 57 56 55 54 54 54 54 52 51 46 42 42 43 39 23 19 16 14 13 15 15 15 14 16 17 19 18 18 17 16 15 13 13 15 15
43 42 43 44 47 49 50 51 53 54 59 58 57 56 55 54 53 54 53 52 51 46 40 40 37 39 23 18 13 14 13 12 14 16 17 17 19 18 18 16 15 16 14 11 11 13 13
42 43 44 44 45 47 49 49 51 53 56 58 57 56 55 54 53 54 53 51 45 42 38 36 32 27 23 14 13 16 12 14 13 16 19 18 19 17 14 11 9 9 12 11 10 11 14
44 43 45 44 44 45 47 47 50 51 52 58 57 56 55 54 53 53 50 40 32 32 34 23 25 21 15 12 17 19 11 16 15 18 15 12 9 6 5 5 9 12 13 12 11 12 13
45 46 45 45 44 44 47 46 48 49 51 56 57 56 55 54 53 52 49 36 34 33 20 19 17 14 14 14 14 17 18 19 21 16 16 14 10 8 7 12 14 14 13 13 13 14 14
45 45 46 45 45 45 46 47 48 48 49 50 57 56 55 54 52 50 48 40 40 42 24 20 17 14 14 14 14 13 15 19 18 14 15 13 12 12 11 15 13 16 13 15 14 14 14
45 46 44 45 45 45 46 47 47 48 48 50 55 56 54 53 51 50 47 45 40 47 34 25 15 13 14 16 14 14 17 17 15 13 13 11 11 14 13 17 18 15 17 14 16 16 12
45 45 44 45 45 45 45 46 48 49 49 47 49 55 53 52 49 47 45 46 39 45 8 25 15 13 14 16 15 15 19 19 16 16 16 14 14 15 14 15 19 18 19 18 19 18 19
44 45 45 45 46 45 45 46 49 49 47 46 48 54 53 52 51 48 47 39 41 29 13 20 13 13 12 16 14 13 16 19 17 16 17 16 18 18 16 19 19 21 19 20 21 22 20
44 45 45 44 46 45 45 46 49 48 47 47 47 50 54 52 48 49 41 36 27 24 28 16 12 15 16 15 15 15 14 13 12 11 11 13 16 19 20 20 22 23 24 20 20 22 19
44 44 45 45 45 45 45 46 48 48 48 46 46 48 54 52 51 45 38 33 22 30 25 15 14 15 16 16 15 15 14 18 25 19 13 9 9 16 18 19 21 20 26 21 17 16 18
44 44 44 45 44 45 45 45 48 48 47 47 48 47 53 54 53 45 35 27 24 31 21 14 14 16 17 16 17 15 16 19 27 30 22 18 15 16 18 20 22 19 17 20 21 20 15
44 44 44 44 45 45 45 45 46 48 47 47 43 46 50 55 54 44 35 30 31 33 18 15 16 18 15 14 13 14 16 21 23 30 33 29 12 19 16 20 22 22 27 14 23 12 16
43 43 44 44 45 44 44 45 46 47 47 47 43 40 51 56 52 45 35 31 32 29 16 17 20 20 19 16 15 15 20 21 22 28 31 33 21 18 12 16 18 22 23 28 25 25 19
42 43 43 44 45 45 44 45 46 47 46 46 41 35 52 56 44 43 37 34 32 22 18 19 23 23 21 19 17 20 18 17 22 24 21 27 21 14 15 25 27 32 26 24 14 20 23
42 43 43 44 44 45 44 44 45 47 45 43 36 38 47 51 38 40 38 36 31 23 19 21 25 25 23 20 19 20 19 24 22 21 23 26 22 17 18 20 19 19 28 27 28 25 22
43 43 43 44 44 45 44 45 45 46 46 43 37 33 39 47 42 38 37 35 32 25 23 25 26 27 23 22 22 20 20 21 21 23 27 25 25 23 12 23 21 15 26 25 16 11 13
42 43 43 43 44 45 44 45 45 44 45 43 37 33 39 39 41 38 37 34 30 23 25 27 27 25 24 22 19 21 21 21 24 24 23 22 19 24 24 23 24 21 19 24 17 19 13
42 43 43 43 44 45 44 45 44 44 44 40 35 39 44 41 41 38 36 33 30 22 25 26 26 26 25 22 20 21 21 21 22 21 21 22 21 20 13 14 11 12 19 24 22 20 20
43 43 43 43 44 44 44 44 44 43 44 38 39 39 44 40 38 37 36 33 28 23 27 28 28 28 24 24 24 24 23 22 23 19 17 19 21 14 13 17 15 11 14 14 20 24 22
43 43 43 43 44 44 44 45 43 42 43 40 40 41 43 38 38 36 35 32 25 26 26 27 31 27 28 26 25 24 22 22 22 18 23 19 22 18 16 16 7 8 22 15 15 16 25
44 43 43 43 44 44 44 44 43 44 43 41 41 41 44 38 37 35 35 28 27 28 27 28 30 27 24 22 20 18 17 17 21 17 22 21 21 17 14 15 15 16 20 10 11 12 17
44 43 43 43 44 44 44 44 43 44 43 42 42 44 42 38 37 35 33 28 26 28 29 31 26 26 23 23 21 16 15 16 17 17 19 21 24 18 19 14 7 18 14 15 14 1 16
44 43 43 43 44 44 44 45 44 45 44 43 42 44 42 41 37 35 30 28 30 31 25 25 26 24 30 25 20 16 14 16 14 15 16 17 19 17 22 21 23 26 14 15 -3 12 14
43 43 43 43 44 44 44 45 45 45 44 43 41 45 45 45 37 36 32 30 31 29 24 26 24 27 29 25 24 20 16 13 15 18 16 16 16 17 22 21 5 27 14 10 15 19 13
43 43 42 43 44 44 45 45 45 44 45 46 41 45 52 46 40 38 39 34 33 31 28 28 28 28 30 29 31 25 21 17 18 13 18 15 18 21 22 20 27 20 17 20 24 19 16
Wind_Speed
12 12 11 11 12 13 16 16 19 20 20 19 17 15 12 11 7 7 4 4 10 11 17 17 18 19 8 3 4 12 15 18 19 16 20 20 19 10 14 21 31 30 24 26 26 26 24
15 12 12 11 8 11 14 17 11 21 21 20 19 16 14 12 10 7 6 2 9 13 18 17 17 20 2 1 10 15 15 14 16 19 16 16 9 10 14 11 14 19 23 21 20 23 23
14 15 13 12 8 6 11 15 15 19 22 21 20 18 16 14 9 8 7 4 6 13 17 18 15 7 4 2 10 15 17 5 9 13 10 11 14 6 7 21 24 25 25 17 15 13 19
15 15 16 14 11 7 7 12 16 13 22 21 21 20 17 14 10 9 6 7 7 11 17 15 18 4 2 1 6 7 13 2 5 4 8 11 9 10 7 21 13 12 12 9 9 12 7
17 15 16 15 13 10 7 8 13 21 20 21 22 21 19 15 12 10 5 8 9 20 11 14 6 3 1 2 2 5 6 9 12 6 4 7 7 9 12 15 8 11 8 22 9 13 6
19 18 17 16 16 14 11 8 9 14 10 22 22 21 20 17 13 10 6 6 9 18 2 7 12 2 2 2 3 8 1 6 4 8 6 5 2 7 5 4 2 2 17 16 10 7 23
20 18 16 17 17 16 16 13 9 13 24 19 21 22 21 18 15 11 3 3 3 2 2 5 2 7 7 3 1 7 1 6 4 5 5 12 18 11 7 6 8 21 24 17 10 1 14
19 18 17 17 18 18 17 15 12 7 14 9 22 22 21 19 16 9 1 3 3 2 5 2 5 6 4 4 1 7 11 3 2 11 11 12 14 4 5 15 16 16 23 15 8 1 5
18 20 18 17 19 18 17 15 13 8 11 23 23 22 22 19 14 6 7 7 6 5 5 4 1 5 2 2 4 7 11 5 12 19 17 12 4 5 3 15 13 15 9 8 10 3 5
18 19 18 17 19 19 17 14 14 9 5 10 11 23 24 23 10 5 6 14 4 2 5 5 5 4 4 8 1 4 8 4 7 17 13 8 3 8 9 10 7 5 6 11 9 8 2
19 20 19 17 19 19 16 14 13 10 8 9 17 27 30 26 12 12 12 10 2 2 2 5 10 2 9 7 11 0 4 3 6 7 9 4 3 13 9 3 9 5 5 7 5 7 4
21 19 21 18 18 20 17 15 15 11 8 4 11 21 33 23 6 14 9 12 1 6 11 8 7 8 9 6 7 4 4 2 10 18 19 11 9 8 8 7 12 9 6 3 4 3 1
23 21 21 21 20 19 18 17 17 13 9 7 8 15 29 22 14 17 19 10 5 9 9 10 8 15 14 11 7 9 12 10 8 7 8 12 7 3 6 11 2 3 7 2 1 1 6
24 22 23 22 22 21 19 19 17 15 10 5 6 17 26 20 21 23 14 10 10 13 11 8 14 18 12 18 9 16 16 4 7 8 16 7 6 7 5 3 2 4 3 5 4 3 1
25 25 24 25 25 24 22 20 17 18 13 8 1 8 12 24 18 20 22 23 15 9 15 17 17 18 13 8 7 10 9 11 3 3 5 6 4 3 6 7 4 3 4 3 2 2 1
29 27 26 27 27 26 24 21 19 17 10 7 3 9 19 26 20 22 22 18 12 9 22 25 11 14 13 16 10 12 13 3 7 4 4 5 6 3 5 2 8 5 4 4 2 3 4
33 31 30 28 29 29 27 24 21 20 16 12 3 7 15 25 20 21 33 19 14 11 25 18 11 12 14 14 12 11 10 6 9 11 8 9 4 6 4 6 7 2 2 6 5 3 4
36 35 33 31 31 31 30 26 24 23 18 13 5 6 17 21 22 25 29 22 15 17 17 12 9 12 20 23 12 7 11 9 14 14 13 7 6 6 3 9 10 6 7 6 4 5 2
39 38 36 34 33 33 32 30 27 26 20 10 4 6 6 39 28 31 21 24 14 17 20 13 10 14 28 17 10 9 9 13 18 16 14 11 4 9 4 2 3 4 7 7 7 3 8
42 40 39 37 36 35 34 32 32 28 23 11 3 7 8 21 14 30 32 32 28 17 13 11 11 19 18 15 6 9 9 9 15 8 5 6 5 5 9 4 9 6 14 15 8 6 4
44 42 41 39 38 37 37 35 36 32 27 15 8 9 12 38 32 33 28 30 32 15 11 13 11 21 23 8 10 9 10 15 9 7 4 5 5 4 4 2 9 10 12 20 18 10 10
45 44 42 41 40 40 40 37 38 36 31 11 9 8 12 33 31 35 31 38 33 19 17 15 18 22 15 16 11 19 18 12 10 7 8 3 2 10 3 10 8 10 18 23 25 20 22
46 45 44 42 41 41 41 40 41 39 29 7 14 20 9 33 34 34 37 32 27 26 9 15 22 17 16 14 8 21 13 17 14 16 12 10 5 8 2 6 3 10 22 23 20 16 23
47 47 45 43 42 42 42 42 42 43 37 12 15 11 12 30 31 33 35 32 28 21 18 17 19 14 11 30 28 22 14 9 18 18 11 12 7 5 4 6 5 7 8 13 24 22 20
48 48 47 45 44 42 43 45 42 45 45 24 19 8 3 28 31 29 36 28 25 22 19 16 17 21 30 29 23 10 4 3 11 15 13 12 7 5 5 8 9 10 11 7 8 8 17
50 50 48 47 47 43 43 44 44 47 46 26 20 12 7 28 37 39 37 35 30 22 20 10 25 25 23 8 7 7 10 9 9 12 13 12 7 5 4 5 8 4 11 12 10 6 8
52 51 49 49 50 48 46 47 46 43 39 24 12 20 9 15 32 37 42 43 21 15 16 22 19 15 7 5 5 7 6 12 14 15 16 16 7 13 6 5 9 10 16 13 2 4 5
54 51 50 50 50 48 46 45 42 41 34 26 19 25 11 6 31 23 22 26 26 22 26 21 14 6 7 6 6 6 6 12 8 13 15 13 14 8 7 5 12 11 13 8 6 6 10
54 51 52 52 51 48 47 45 43 38 33 29 15 20 23 14 22 13 8 20 20 24 27 17 11 14 9 7 7 5 4 6 11 12 16 12 13 11 17 11 9 18 7 11 7 10 9
Wind_Direction
279 276 294 315 331 343 338 335 222 216 212 209 214 216 213 193 233 239 253 315 323 329 321 325 337 339 355 49 16 343 341 346 346 2 9 7 19 37 94 104 83 95 96 94 93 86 94
278 276 272 288 313 330 339 338 319 212 212 210 209 213 207 216 192 249 253 328 319 321 316 322 340 337 305 127 333 348 331 2 1 7 10 11 349 45 107 84 89 123 110 110 113 112 100
271 267 271 266 287 300 331 341 333 226 212 210 207 204 206 217 213 205 259 271 309 313 313 316 335 348 15 337 325 323 341 18 357 0 357 347 341 79 87 83 110 123 122 128 133 128 123
268 264 269 266 259 275 303 339 357 290 206 207 204 202 204 209 208 225 229 279 307 297 300 312 319 354 120 232 314 346 343 351 13 326 343 330 335 73 81 122 132 148 119 101 29 139 50
258 267 263 264 260 253 268 302 337 354 211 203 200 200 199 200 206 216 232 280 286 292 285 302 315 183 72 170 11 343 22 345 323 317 296 304 66 105 125 145 163 195 131 120 88 75 68
257 256 261 257 260 256 253 270 304 330 295 197 196 198 199 193 191 211 236 267 303 294 293 265 261 0 356 105 350 300 123 277 303 310 309 201 140 102 36 25 174 216 109 92 96 67 98
259 257 264 257 250 256 253 256 274 332 356 196 193 196 197 188 185 194 224 326 306 252 164 299 180 120 131 159 163 2 337 295 267 259 72 43 70 55 31 355 34 98 100 102 97 61 101
267 255 255 259 253 253 259 246 250 277 331 267 194 196 190 182 181 166 328 185 302 209 132 8 59 57 35 325 203 24 351 281 257 105 86 68 73 61 333 59 50 78 107 106 90 142 149
267 261 251 253 252 245 251 242 243 265 321 349 188 192 181 169 141 143 209 213 352 359 104 266 256 168 154 165 41 336 345 261 98 74 74 92 148 26 63 67 75 40 84 129 133 179 85
273 262 247 248 245 239 244 258 235 240 300 312 232 184 161 144 142 168 219 241 21 352 50 209 201 194 189 138 102 306 318 42 97 107 98 75 323 108 66 61 30 81 348 107 132 177 176
265 261 254 245 235 232 235 244 231 226 244 333 327 172 158 155 155 174 207 211 57 31 259 173 144 117 178 154 147 215 300 315 110 120 99 74 58 80 70 30 46 136 197 130 201 103 89
263 257 254 242 225 226 228 237 222 207 242 318 272 186 165 178 174 199 167 134 85 115 223 165 145 188 158 180 169 154 226 193 92 82 86 88 42 53 97 65 97 159 128 199 311 99 254
258 254 250 243 229 220 223 230 216 205 218 249 310 335 169 179 194 169 141 141 145 198 161 169 187 176 168 161 126 185 145 133 145 120 132 109 94 54 108 103 28 237 152 49 357 304 236
253 248 245 240 231 229 216 226 212 195 189 224 285 307 201 182 206 154 153 159 200 183 182 158 160 166 154 149 161 171 171 131 82 140 154 144 161 359 357 54 257 160 140 161 206 237 12
249 245 238 235 230 227 222 224 209 187 180 211 31 292 210 198 181 166 162 196 198 178 168 148 150 156 151 170 159 174 183 173 98 76 148 127 113 90 44 39 31 12 94 56 109 341 303
244 241 237 232 228 220 223 217 214 187 168 140 88 303 220 203 170 174 176 202 203 213 144 149 153 186 166 164 164 175 182 148 140 126 141 162 116 215 154 185 28 73 56 113 145 189 256
240 237 233 230 223 219 215 215 212 179 151 147 99 290 189 190 158 182 198 191 203 229 145 164 156 168 171 167 177 185 167 139 135 129 114 130 119 195 132 199 172 63 86 70 111 128 202
234 232 229 225 222 214 211 208 203 173 143 154 138 223 192 171 177 194 195 186 217 169 155 192 169 169 165 165 171 163 183 168 165 141 144 182 123 137 173 109 153 140 153 144 174 198 203
232 228 226 221 218 210 207 203 194 168 151 129 185 248 280 184 177 196 171 198 225 184 168 181 170 192 148 160 149 170 98 144 161 168 160 167 157 120 126 94 199 199 166 134 102 77 199
227 225 222 218 213 207 203 195 186 165 157 175 137 236 243 201 189 184 170 188 210 188 165 168 163 133 133 139 118 120 116 154 163 156 134 156 162 157 161 147 142 193 169 169 148 178 208
223 221 217 215 209 204 197 192 181 164 167 177 195 230 247 179 196 177 173 183 197 180 151 165 160 153 145 136 128 122 126 137 115 158 118 118 187 181 269 270 151 183 188 183 197 198 211
218 216 213 210 206 200 193 190 176 161 179 180 184 221 214 185 175 169 175 194 190 166 158 165 158 155 143 160 168 158 147 166 166 177 153 158 224 175 253 257 223 219 207 194 206 216 234
215 211 209 207 201 198 190 184 172 166 177 190 214 270 236 166 173 168 188 180 183 154 152 150 169 145 149 163 151 149 130 157 157 160 165 168 182 151 214 151 57 283 235 219 202 198 210
211 208 203 202 198 192 186 179 173 174 185 201 207 233 191 170 175 173 175 170 170 156 147 172 153 131 120 103 100 119 134 115 133 171 163 169 182 156 189 106 227 238 187 209 223 233 197
205 203 199 196 193 189 182 174 175 180 183 206 211 246 175 180 171 166 173 166 148 142 165 179 145 131 120 110 109 102 99 114 172 182 204 164 180 139 183 214 292 290 202 187 199 270 222
200 198 194 189 185 186 178 176 181 183 187 199 224 219 295 165 191 173 166 164 155 157 160 135 127 131 122 92 129 148 178 181 177 172 188 182 181 152 173 209 219 230 144 109 82 281 254
194 192 188 183 180 179 177 177 182 185 183 195 223 205 265 193 174 169 172 170 151 137 126 135 135 136 98 115 141 165 171 167 164 172 183 179 182 192 209 241 278 250 138 113 154 195 56
185 186 182 178 177 175 175 175 178 182 180 187 220 216 247 207 176 172 158 164 153 146 147 155 123 179 144 137 162 187 158 182 157 174 177 170 170 182 181 217 263 209 128 182 199 147 117
177 179 175 174 173 172 171 174 182 179 180 186 226 233 241 194 173 149 91 150 139 150 140 162 156 151 158 145 188 147 163 147 149 184 160 189 186 184 192 212 237 174 163 175 140 151 144